Regional Weather Roundup
Issued by NWS

Home | Current Version | Previous Version | Text Only | Print | Product List | Glossary On
Versions: 1 2 3 4 5 6 7 8 9 10 11 12 13 14 15 16 17 18 19 20 21 22 23 24 25 26 27 28 29 30 31 32 33 34 35 36 37 38 39 40 41 42 43 44 45 46 47 48 49 50
000
ASUS44 KJAN 192110
RWRMS

MISSISSIPPI HOURLY WEATHER ROUNDUP
NATIONAL WEATHER SERVICE JACKSON MS
400 PM CDT FRI SEP 19 2014

NOTE: "FAIR: INDICATES FEW OR NO CLOUDS BELOW 12,000 FEET WITH NO
SIGNIFICANT WEATHER AND/OR OBSTRUCTIONS TO VISIBILITY.

MSZ001>002-007>008-010>013-018>021-025>028-034>036-192200-
NORTHWEST MISSISSIPPI

CITY           SKY/WX    TMP DP  RH WIND       PRES   REMARKS
CLARKSDALE     FAIR      86  66  51 CALM      29.98F
CLEVELAND      FAIR      87  70  56 E6        29.96F HX  92
GREENWOOD      MOSUNNY   87  65  47 S6        29.96F
GREENVILLE     SUNNY     90  64  42 E5        29.95F HX  91
GRENADA        FAIR      86  64  48 CALM      29.97F
OLIVE BRANCH   PTSUNNY   84  70  61 S6        29.99
OXFORD         FAIR      82  64  54 CALM      30.01F
TUNICA         PTCLDY    84  66  54 CALM      29.99F
$$

MSZ003>006-009-014>017-022>024-029>033-037>039-192200-
NORTHEAST MISSISSIPPI

CITY           SKY/WX    TMP DP  RH WIND       PRES   REMARKS
COLUMBUS AFB   MOSUNNY   89  65  44 N5        29.97F HX  90
CORINTH        FAIR      88  64  45 SE7       29.99S
GOLDN TRIANGLE MOSUNNY   90  64  43 SE6       29.97F HX  91
STARKVILLE     FAIR      88  61  40 E5        29.97F
TUPELO         MOSUNNY   85  62  46 SW3       29.98F
$$

MSZ040-058-192200-
CENTRAL MISSISSIPPI

CITY           SKY/WX    TMP DP  RH WIND       PRES   REMARKS
JACKSON INTL   PTSUNNY   89  68  49 CALM      29.95F HX  93
JACKSON HAWKNS PTSUNNY   89  68  49 E10       29.95F HX  93
MERIDIAN KEY   SUNNY     90  62  39 VRB5      29.95F HX  90
MERIDIAN NAS   MOSUNNY   89  62  40 E5        29.95F
RAYMOND        FAIR      91  86  84 SE3       29.95S HX 122
VICKSBURG      SUNNY     88  65  46 E6        29.94F HX  90
$$

MSZ059>079-192200-
SOUTH MISSISSIPPI

CITY           SKY/WX    TMP DP  RH WIND       PRES   REMARKS
BROOKHAVEN     FAIR      84  70  61 CALM      29.96F
COLUMBIA       FAIR      88  68  51 NE5G12    29.92F HX  91
HATTIESBURG    MOSUNNY   88  68  51 MISG      29.94F HX  91
MCCOMB         MOSUNNY   88  65  46 E7        29.94F HX  90
NATCHEZ        SUNNY     86  70  58 SE6       29.95F HX  90
PINE BELT      MOSUNNY  N/A N/A N/A CALM      29.96F
$$

MSZ080>082-192200-
COASTAL MISSISSIPPI

CITY           SKY/WX    TMP DP  RH WIND       PRES   REMARKS
BILOXI         MOSUNNY   85  67  55 SE13      29.93F
PASCAGOULA     MOSUNNY   85  70  60 S9        29.93F
GULFPORT       MOSUNNY   85  68  56 SE15      29.93S
$$


USA.gov is the U.S. government's official web portal to all federal, state and local government web resources and services.